Location: Newark
(48.8656°N, 2.3211°E)
Time: 20:59:09
(UTC+00:00)

Envisat - Pass Details

Date: 08 December 2019
Orbit: 764 x 766 km, 98.1° (Epoch: 28 January)

Event Time Altitude Azimuth Distance (km) Brightness Sun altitude
Rises 17:11:09 0° 151° (SSE) 3,222 6.1 -12.0°
Reaches altitude 10° 17:13:29 10° 147° (SSE) 2,300 5.4 -12.4°
Maximum altitude 17:18:26 56° 70° (ENE) 909 3.0 -13.1°
Drops below altitude 10° 17:23:25 10° 353° (N) 2,317 5.4 -13.9°
Sets 17:25:46 0° 350° (N) 3,248 6.2 -14.3°
